#timestamp,LO_Frequency,Hit,StdDev 
1684443615.9,286046998.7,N
1684443635.7,286046998.8,N
1684443655.6,286046997.2,N
1684443675.4,286046996.8,N
1684443695.2,286046996.5,N
1684443715.1,286046997.3,N
1684443716.0,286046997.3,N
1684443735.8,286046997.0,N
1684443785.7,286046999.3,E
1684443795.6,286046998.6,N
1684443815.4,286047000.6,P
1684443835.3,286047000.5,N
1684443855.1,286046998.1,N
1684443875.9,286046998.1,N
1684443895.7,286047000.8,N
1684443915.5,286046998.6,N
1684443935.4,286046999.5,N
1684443955.2,286046999.0,N
1684443975.0,286046998.9,N
1684443975.9,286046998.9,N
1684443995.8,286046999.3,N
1684444015.6,286046999.4,N
1684444035.5,286046999.1,N
1684444055.3,286046999.3,N
1684444075.1,286046999.3,N
1684444095.9,286046999.4,N
1684444115.7,286046999.5,N
1684444135.5,286046999.3,N
1684444155.4,286046999.3,N
1684444175.2,286046998.2,N
1684444195.1,286046998.5,N
1684444196.0,286046998.5,N
1684444215.8,286046998.3,N
1684444235.6,286046999.4,N
1684444255.5,286046996.5,Y
1684444275.3,286046999.0,P
1684444295.1,286046998.4,P
1684444315.9,286046998.5,P
1684444335.7,286047000.5,N
1684444355.6,286046998.6,N
1684444375.4,286046996.6,Y
1684444395.3,286047000.5,P
1684444415.1,286047000.9,N
1684444416.0,286047000.9,N
1684444435.8,286047001.2,N
1684444455.7,286046998.8,N
1684444475.5,286046999.3,N
1684444495.4,286046997.0,Y
1684444515.2,286046998.8,P
1684444535.0,286046998.7,N
1684444535.9,286046998.7,N
1684444555.8,286046998.4,N
1684444575.6,286046998.8,N
1684444595.4,286046998.6,N
1684444615.3,286046998.6,N
1684444635.1,286046998.6,N
1684444655.9,286046998.5,Y
1684444675.7,286047000.5,P
1684444695.5,286047000.6,N
1684444715.4,286047001.2,N
1684444735.2,286047000.7,N
1684444755.1,286046998.4,N
1684444756.0,286046998.4,N
1684444775.8,286046998.6,N
1684444795.6,286047000.5,N
1684444815.5,286047000.9,N
1684444835.3,286047000.9,N
1684444855.1,286047000.5,N
1684444875.9,286047000.4,N
1684444895.7,286047001.1,N
1684444915.6,286046998.5,N
1684444935.4,286046998.1,N
1684444955.2,286047001.2,N
1684444975.1,286046998.2,N
1684444976.0,286046998.2,N
1684444995.8,286047001.2,N
1684445015.7,286046998.1,N
1684445035.5,286047001.1,N
1684445055.3,286047001.2,N
1684445075.2,286047000.8,N
1684445095.0,286046998.6,N
1684445095.9,286046998.6,N
1684445115.7,286047001.1,N
1684445135.6,286046998.5,N
1684445155.4,286046998.2,N
1684445175.3,286047000.5,N
1684445195.1,286047002.7,N
1684445196.0,286047002.7,N
1684445215.8,286047000.2,N
1684445235.7,286046999.8,N
1684445255.5,286047002.1,N
1684445275.3,286047001.5,N
1684445295.2,286047003.8,N
1684445315.0,286047002.0,N
1684445315.9,286047002.0,N
1684445335.8,286047002.8,N
1684445355.6,286046999.8,N
1684445375.4,286047002.5,N
1684445395.3,286047002.5,N
1684445415.1,286047002.6,N
1684445435.9,286047002.6,N
1684445455.7,286047001.5,N
1684445475.5,286047001.6,N
1684445495.4,286047004.4,N
1684445515.2,286047001.5,N
1684445535.0,286047001.7,N
1684445536.0,286047001.7,N
1684445555.8,286047001.6,N
1684445575.6,286047004.0,N
1684445595.5,286047001.3,N
1684445615.3,286047001.6,N
1684445635.1,286047001.3,N
1684445655.9,286047001.5,N
1684445675.7,286047001.5,N
1684445695.6,286047001.4,N
1684445715.4,286047003.6,Y
1684445735.2,286047002.3,P
1684445755.1,286047001.5,P
1684445756.0,286047001.5,P
1684445775.8,286047004.4,Y
1684445795.7,286047002.5,P
1684445815.5,286047002.7,P
1684445835.3,286047002.8,P
1684445855.2,286047000.3,N
1684445875.0,286047000.4,N
1684445875.9,286047000.4,N
1684445895.8,286047000.4,N
1684445915.6,286047000.1,N
1684445935.4,286046999.8,N
1684445955.3,286047002.7,N
1684445975.1,286047002.2,N
1684445995.8,286047001.9,N
1684446015.7,286047001.8,N
1684446035.5,286047001.5,N
1684446055.4,286047002.1,N
1684446075.2,286047002.3,N
1684446095.0,286047002.2,N
1684446095.9,286047002.2,N
1684446115.8,286047001.9,N
1684446135.6,286047002.1,N
1684446155.4,286047002.0,N
1684446175.3,286047001.4,N
1684446195.1,286047001.7,N
1684446215.9,286047003.2,Y
1684446235.7,286047001.8,P
1684446255.5,286047000.4,P
1684446275.4,286047000.0,N
1684446295.2,286047002.7,Y
1684446315.1,286047000.9,P
1684446316.0,286047000.9,P
1684446335.8,286046999.7,P
1684446355.6,286047000.5,N
1684446375.5,286047002.4,Y
1684446395.3,286046999.8,P
1684446415.1,286047000.5,N
1684446435.9,286047002.7,P
1684446455.7,286047002.4,N
1684446475.6,286046999.9,N
1684446495.4,286047000.7,N
1684446515.2,286046998.6,N
1684446535.1,286046998.1,N
1684446536.0,286046998.1,N
1684446555.8,286046998.1,N
1684446575.7,286046999.9,N
1684446595.5,286047002.8,N
1684446615.3,286047000.3,N
1684446635.2,286047000.4,N
1684446655.0,286047000.9,N
1684446655.9,286047000.9,N
1684446675.7,286047000.3,N
1684446695.6,286046999.7,N
1684446715.4,286047000.0,N
1684446735.3,286046998.5,N
1684446755.1,286047000.4,N
1684446775.8,286047000.0,N
1684446795.7,286047000.4,N
1684446815.5,286047000.5,N
1684446835.4,286047002.8,N
1684446855.2,286047000.0,N
1684446875.0,286046999.7,N
1684446875.9,286046999.7,N
1684446895.8,286047000.1,N
1684446915.6,286047000.4,N
1684446935.4,286047002.0,N
1684446955.3,286047002.1,N
1684446975.1,286047002.4,N
1684446995.9,286047002.3,N
1684447015.7,286047002.7,N
1684447035.5,286046999.7,N
1684447055.4,286047002.3,N
1684447075.2,286046999.7,N
1684447095.0,286047001.9,N
1684447095.9,286047001.9,N
1684447115.8,286047000.2,N
1684447135.6,286047000.6,N
1684447155.5,286046998.1,N
1684447175.3,286047000.9,N
1684447195.1,286047001.0,N
